TimeCDT,TemperatureF,Dew PointF,Humidity,Sea Level PressureIn,VisibilityMPH,Wind Direction,Wind SpeedMPH,Gust SpeedMPH,PrecipitationIn,Events,Conditions,WindDirDegrees,DateUTC
12:10 AM,33.8,26.6,75,30.40,10.0,North,9.2,-,N/A,,Clear,350,2012-10-12 05:10:00
12:30 AM,32.0,23.0,69,30.41,10.0,NNW,8.1,-,N/A,,Clear,340,2012-10-12 05:30:00
1:10 AM,28.4,23.0,80,30.41,10.0,North,3.5,-,N/A,,Clear,350,2012-10-12 06:10:00
1:30 AM,28.4,23.0,80,30.41,10.0,North,4.6,-,N/A,,Clear,350,2012-10-12 06:30:00
1:50 AM,28.4,23.0,80,30.42,10.0,Calm,Calm,-,N/A,,Clear,0,2012-10-12 06:50:00
2:10 AM,28.4,24.8,86,30.42,10.0,Calm,Calm,-,N/A,,Clear,0,2012-10-12 07:10:00
2:30 AM,26.6,21.2,80,30.42,10.0,Calm,Calm,-,N/A,,Clear,0,2012-10-12 07:30:00
2:50 AM,28.4,23.0,80,30.41,10.0,Calm,Calm,-,N/A,,Clear,0,2012-10-12 07:50:00
3:10 AM,23.0,17.6,80,30.42,10.0,Calm,Calm,-,N/A,,Clear,0,2012-10-12 08:10:00
3:19 AM,22.6,18.9,85,30.42,10.0,Calm,Calm,-,N/A,,Clear,0,2012-10-12 08:19:00
3:28 AM,22.6,19.8,89,30.41,10.0,Calm,Calm,-,N/A,,Clear,0,2012-10-12 08:28:00
3:49 AM,21.9,18.1,85,30.42,10.0,Calm,Calm,-,N/A,,Clear,0,2012-10-12 08:49:00
4:09 AM,19.4,16.5,89,30.42,10.0,Calm,Calm,-,N/A,,Clear,0,2012-10-12 09:09:00
4:29 AM,20.1,17.6,90,30.42,10.0,Calm,Calm,-,N/A,,Clear,0,2012-10-12 09:29:00
4:48 AM,21.4,18.9,90,30.43,10.0,Calm,Calm,-,N/A,,Clear,0,2012-10-12 09:48:00
5:09 AM,20.8,18.5,91,30.42,10.0,Calm,Calm,-,N/A,,Clear,0,2012-10-12 10:09:00
5:49 AM,21.4,18.0,87,30.41,10.0,Calm,Calm,-,N/A,,Clear,0,2012-10-12 10:49:00
6:08 AM,19.2,17.1,91,30.41,10.0,Calm,Calm,-,N/A,,Clear,0,2012-10-12 11:08:00
6:29 AM,19.2,17.2,92,30.41,10.0,Calm,Calm,-,N/A,,Clear,0,2012-10-12 11:29:00
6:49 AM,20.3,18.5,93,30.41,10.0,Calm,Calm,-,N/A,,Clear,0,2012-10-12 11:49:00
7:09 AM,20.7,18.9,93,30.41,10.0,Calm,Calm,-,N/A,,Clear,0,2012-10-12 12:09:00
7:29 AM,19.2,17.4,93,30.41,10.0,Calm,Calm,-,N/A,,Clear,0,2012-10-12 12:29:00
7:48 AM,19.2,17.4,93,30.42,10.0,Calm,Calm,-,N/A,,Clear,0,2012-10-12 12:48:00
8:08 AM,21.2,19.8,94,30.41,10.0,Calm,Calm,-,N/A,,Clear,0,2012-10-12 13:08:00
8:29 AM,26.6,24.8,93,30.42,10.0,Calm,Calm,-,N/A,,Clear,0,2012-10-12 13:29:00
9:09 AM,34.0,28.2,79,30.40,10.0,SE,4.6,-,N/A,,Clear,130,2012-10-12 14:09:00
9:29 AM,36.5,27.9,71,30.40,10.0,SE,6.9,-,N/A,,Clear,130,2012-10-12 14:29:00
9:49 AM,39.2,26.6,61,30.40,10.0,SE,10.4,-,N/A,,Clear,130,2012-10-12 14:49:00
10:09 AM,40.8,25.2,54,30.39,10.0,SE,9.2,-,N/A,,Clear,130,2012-10-12 15:09:00
10:29 AM,41.7,23.9,49,30.38,10.0,SE,13.8,19.6,N/A,,Clear,140,2012-10-12 15:29:00
11:08 AM,44.1,24.8,47,30.37,10.0,SE,10.4,17.3,N/A,,Clear,130,2012-10-12 16:08:00
11:29 AM,46.2,25.9,45,30.37,10.0,SE,9.2,16.1,N/A,,Clear,140,2012-10-12 16:29:00
12:09 PM,48.9,26.1,41,30.35,10.0,SE,11.5,-,N/A,,Clear,140,2012-10-12 17:09:00
12:29 PM,49.1,25.7,40,30.33,10.0,SSE,10.4,17.3,N/A,,Clear,150,2012-10-12 17:29:00
12:48 PM,49.1,23.7,37,30.33,10.0,SSE,10.4,16.1,N/A,,Clear,150,2012-10-12 17:48:00
1:30 PM,51.8,24.8,35,30.30,10.0,SSE,9.2,17.3,N/A,,Clear,160,2012-10-12 18:30:00
1:50 PM,51.8,23.0,33,30.29,10.0,SSE,11.5,19.6,N/A,,Clear,150,2012-10-12 18:50:00
2:30 PM,53.6,23.0,30,30.27,10.0,South,13.8,19.6,N/A,,Clear,170,2012-10-12 19:30:00
3:10 PM,53.6,21.2,28,30.25,10.0,SSE,12.7,21.9,N/A,,Clear,160,2012-10-12 20:10:00
3:22 PM,54.1,21.0,27,30.24,10.0,SSE,12.7,18.4,N/A,,Clear,160,2012-10-12 20:22:00
3:48 PM,54.1,21.2,28,30.22,10.0,SSE,12.7,21.9,N/A,,Clear,150,2012-10-12 20:48:00
4:09 PM,54.1,22.1,29,30.21,10.0,SSE,10.4,19.6,N/A,,Clear,160,2012-10-12 21:09:00
4:11 PM,54.1,22.1,29,30.21,10.0,SSE,8.1,17.3,N/A,,Clear,160,2012-10-12 21:11:00
5:09 PM,54.1,22.8,30,30.17,10.0,SSE,10.4,18.4,N/A,,Clear,160,2012-10-12 22:09:00
5:49 PM,54.0,23.7,31,30.15,10.0,SE,11.5,16.1,N/A,,Clear,140,2012-10-12 22:49:00
6:06 PM,51.8,21.9,31,30.14,10.0,SSE,6.9,-,N/A,,Clear,150,2012-10-12 23:06:00
6:28 PM,49.3,20.5,32,30.12,10.0,SE,9.2,-,N/A,,Clear,140,2012-10-12 23:28:00
6:49 PM,49.1,22.1,35,30.10,10.0,ESE,9.2,-,N/A,,Clear,120,2012-10-12 23:49:00
7:09 PM,49.1,21.9,34,30.10,10.0,SE,9.2,-,N/A,,Mostly Cloudy,140,2012-10-13 00:09:00
7:29 PM,49.1,22.8,36,30.09,10.0,SE,9.2,-,N/A,,Overcast,130,2012-10-13 00:29:00
7:49 PM,49.3,22.1,34,30.08,10.0,SE,12.7,16.1,N/A,,Overcast,140,2012-10-13 00:49:00
8:09 PM,50.4,22.1,33,30.08,10.0,SE,11.5,-,N/A,,Overcast,140,2012-10-13 01:09:00
8:29 PM,49.1,21.2,33,30.06,10.0,SE,12.7,-,N/A,,Mostly Cloudy,140,2012-10-13 01:29:00
9:09 PM,49.5,22.1,34,30.04,10.0,SE,13.8,21.9,N/A,,Overcast,140,2012-10-13 02:09:00
9:29 PM,49.3,21.9,34,30.04,10.0,SE,13.8,18.4,N/A,,Overcast,140,2012-10-13 02:29:00
9:49 PM,49.3,21.9,34,30.03,10.0,SE,16.1,20.7,N/A,,Overcast,140,2012-10-13 02:49:00
10:09 PM,49.1,21.9,34,30.02,10.0,SSE,12.7,21.9,N/A,,Overcast,150,2012-10-13 03:09:00
10:49 PM,50.4,23.0,34,29.99,10.0,SSE,11.5,19.6,N/A,,Overcast,150,2012-10-13 03:49:00
11:29 PM,50.4,24.6,37,29.98,10.0,SSE,9.2,17.3,N/A,,Overcast,150,2012-10-13 04:29:00
11:48 PM,50.4,25.3,38,29.97,10.0,SSE,10.4,19.6,N/A,,Overcast,160,2012-10-13 04:48:00